Wind_Speed
35 39 30 21 21 21 23 21 16 16 4 18 25 23 19 25 25 26 26 21 22 31 33 23 23 23 24 25 26 24 24 25 25 25 23 25 22 24 26 23 22 22 22 20
37 34 23 20 25 22 23 23 19 14 12 26 16 20 20 32 26 24 24 24 27 26 25 18 20 22 21 24 24 24 22 23 23 23 21 22 21 22 23 22 20 22 23 16
40 30 24 28 28 28 25 24 15 20 20 24 20 25 28 32 25 22 21 24 30 31 19 19 21 20 22 24 21 21 20 21 21 21 18 20 22 22 20 20 20 21 19 15
43 38 34 35 33 29 29 20 20 23 23 31 29 35 32 24 18 17 20 24 32 37 27 23 21 19 23 21 20 18 19 19 20 18 16 18 20 24 19 20 21 21 18 14
32 31 38 36 29 27 21 23 22 18 15 18 25 29 16 21 21 18 29 22 32 38 35 24 21 18 21 18 18 17 18 17 18 16 14 16 16 21 15 21 23 21 17 13
30 27 37 35 30 28 22 24 21 15 19 28 23 22 3 8 14 19 25 30 34 39 32 22 17 17 18 18 15 16 16 16 16 14 12 13 14 17 20 20 19 22 12 15
30 29 32 30 34 32 31 24 26 26 31 34 23 23 3 8 12 18 24 27 29 25 13 16 12 16 14 15 13 15 15 15 15 12 11 13 13 14 20 19 17 17 10 13
34 34 32 32 34 33 32 26 33 31 32 25 12 22 9 17 15 16 24 24 25 25 16 13 11 16 15 11 12 15 15 14 12 8 9 12 10 12 17 20 18 18 12 7
36 32 27 30 29 29 30 33 24 29 27 21 11 15 4 15 14 20 25 25 26 20 15 13 13 15 14 9 12 14 13 12 12 6 7 9 12 10 13 19 17 16 15 8
40 36 27 28 27 29 34 27 29 34 33 32 24 22 13 19 24 25 29 27 28 21 16 13 11 12 10 7 12 14 13 14 11 3 7 9 11 11 13 19 14 17 18 12
43 41 32 29 36 35 35 37 38 33 31 27 22 23 17 21 22 25 23 28 28 16 15 12 12 9 5 7 12 14 15 14 9 5 7 9 10 11 13 17 14 10 15 15
47 46 43 38 29 28 34 37 39 41 36 25 21 15 17 20 23 26 22 26 27 12 12 10 3 7 2 7 12 14 15 14 10 9 7 8 11 11 14 16 14 13 9 9
47 50 47 39 38 37 32 33 38 43 34 27 22 17 26 23 26 25 21 21 17 10 8 1 4 7 2 5 10 11 13 14 12 13 11 10 14 14 16 20 16 19 15 16
40 46 54 50 45 40 37 38 39 43 41 30 25 17 23 27 28 23 24 22 9 7 5 1 3 6 2 4 9 10 11 11 11 11 12 12 14 15 17 21 13 16 19 16
45 48 52 51 44 41 39 38 36 33 32 34 23 24 29 25 23 20 27 17 5 7 3 2 1 4 4 3 8 9 11 10 8 9 10 11 12 12 15 18 20 17 15 15
49 52 49 53 51 48 45 41 39 31 31 38 29 25 28 24 23 23 28 17 6 6 5 1 3 2 4 3 6 8 9 11 9 8 10 12 13 12 9 14 17 20 22 18
56 58 41 55 55 50 49 48 43 32 32 31 33 26 32 33 32 29 30 19 11 6 6 3 3 3 3 2 5 8 8 10 10 9 8 10 12 13 12 12 18 19 23 24
62 63 56 50 55 63 55 47 40 42 37 25 30 29 26 30 28 27 27 22 16 8 6 3 6 6 3 2 3 5 8 8 10 9 8 9 12 13 15 15 17 19 21 20
63 63 61 59 57 61 55 55 43 36 40 28 27 31 26 24 29 31 25 21 20 14 10 8 8 8 6 5 2 4 6 7 7 8 7 8 11 13 15 16 15 16 18 20
60 62 64 66 59 64 53 54 40 31 33 32 29 29 28 28 30 25 22 22 18 21 12 11 10 9 10 9 5 4 5 8 8 8 8 7 9 12 14 16 16 16 17 17
59 62 63 62 62 61 55 49 41 45 44 35 36 31 26 30 27 24 22 23 22 19 14 14 11 11 12 10 9 6 5 7 9 9 9 8 8 10 10 10 11 12 11 10
66 61 61 59 57 61 58 53 54 48 42 39 41 39 30 24 21 25 25 27 25 18 14 15 14 14 16 13 13 11 9 8 9 10 10 9 8 8 9 7 5 5 6 9
63 62 61 61 56 56 50 51 49 46 50 48 46 42 38 29 28 24 27 29 27 19 15 15 17 18 20 14 15 15 10 10 11 11 9 10 9 8 8 8 6 5 7 9
60 63 69 64 60 52 47 50 45 43 42 46 44 40 37 31 33 28 30 30 27 22 18 15 18 18 14 13 13 17 13 12 12 13 11 10 10 10 9 8 7 7 8 9
61 51 59 52 54 51 51 47 43 45 44 46 44 40 39 35 34 33 31 30 29 24 20 18 20 18 19 16 14 15 16 14 14 14 15 14 11 10 10 9 9 7 6 6
44 74 70 54 55 60 56 52 54 41 45 44 41 32 31 33 31 34 35 33 31 26 22 22 19 25 24 21 19 18 18 19 17 16 15 16 16 14 12 11 10 11 10 8
Wind_Direction
237 241 238 248 253 255 253 250 230 191 165 280 277 260 277 306 290 305 302 283 299 315 309 317 308 317 317 318 321 330 326 329 330 331 331 331 331 333 339 335 344 342 339 337
243 238 240 241 242 233 233 231 226 237 182 261 278 289 297 291 308 282 302 317 324 325 314 308 323 316 318 318 326 328 327 330 335 330 335 335 338 336 339 339 337 345 345 342
239 240 238 236 236 237 234 232 225 246 200 216 251 257 263 267 275 300 303 297 304 316 329 319 325 315 320 316 324 325 328 332 335 332 341 341 341 339 346 346 346 353 358 357
244 235 229 229 231 235 235 234 234 238 220 220 232 253 253 265 299 271 282 273 290 306 333 320 322 315 316 317 326 325 332 333 333 334 344 334 349 354 355 12 12 3 4 6
245 242 229 233 237 240 247 237 241 236 231 251 249 258 284 276 266 266 264 285 295 311 320 316 312 311 318 323 323 330 338 337 334 336 348 346 5 3 8 11 18 9 9 21
230 225 222 228 235 235 235 231 221 211 238 257 267 273 6 223 261 310 311 311 320 316 317 307 304 314 321 325 326 335 341 339 333 341 345 343 355 2 7 10 18 10 24 32
229 228 223 221 226 220 218 212 209 214 225 239 250 264 255 225 263 276 317 318 328 319 309 295 305 325 321 328 331 343 344 339 332 344 344 340 347 4 9 17 19 29 32 36
232 226 227 220 225 223 223 205 224 210 227 246 260 241 313 265 225 263 304 300 332 322 309 296 319 330 325 330 340 354 351 345 340 355 345 353 355 2 10 19 32 33 32 65
230 226 225 230 231 222 209 219 226 222 236 251 229 254 318 292 277 268 288 299 320 321 308 310 314 316 324 334 355 4 5 353 352 7 354 353 5 354 19 21 31 51 46 84
232 234 225 232 219 225 218 213 219 222 223 232 229 234 236 272 290 293 306 310 324 322 311 302 324 317 325 352 7 12 9 354 355 7 8 358 5 9 24 35 48 56 43 55
222 228 218 217 222 217 211 202 221 238 244 239 245 243 242 244 276 283 297 309 326 307 306 300 310 308 329 13 19 20 18 18 22 36 13 7 20 20 32 34 46 70 51 58
220 223 224 225 222 220 224 204 209 225 232 230 236 214 209 244 257 277 293 310 318 283 305 317 310 325 18 29 33 34 25 25 33 43 28 21 32 32 49 37 52 71 53 67
214 216 221 217 210 209 224 215 213 222 234 231 237 215 244 260 275 285 297 298 324 278 291 323 348 343 50 47 46 47 39 39 48 43 44 55 47 43 58 51 83 75 70 77
206 212 217 217 222 221 211 218 220 217 225 227 233 211 220 242 257 274 284 300 306 266 281 222 330 345 23 68 61 55 57 50 42 43 53 62 59 52 65 59 76 77 81 88
198 203 210 216 216 211 223 226 226 220 231 235 236 209 221 240 260 268 280 306 300 253 297 202 228 340 24 79 75 68 60 62 36 37 57 60 71 69 66 63 70 73 88 92
194 196 205 210 213 210 207 226 234 232 234 237 230 216 224 249 265 269 278 297 311 216 276 291 191 305 8 83 89 84 70 64 52 40 56 69 79 84 59 65 74 73 70 109
194 197 197 207 204 203 205 212 222 232 235 237 237 223 213 217 243 259 271 297 314 254 234 262 195 225 302 25 92 97 86 75 68 52 59 75 78 83 88 77 84 85 84 87
196 203 195 203 202 206 212 218 217 222 228 232 238 225 216 218 224 242 265 285 296 285 232 236 190 206 252 300 94 100 105 97 81 69 65 80 85 92 96 95 90 92 92 91
196 203 200 202 205 212 208 214 218 228 219 224 232 233 214 212 219 235 252 264 282 285 238 250 201 197 233 239 199 123 122 121 105 90 82 91 98 99 98 99 95 89 88 93
197 202 205 206 208 208 203 207 216 220 233 231 233 238 233 228 230 237 263 272 275 287 244 239 213 201 214 224 239 203 150 138 133 117 116 117 117 115 114 111 107 102 97 90
199 203 208 207 211 210 209 201 195 212 222 226 235 233 226 232 244 243 250 256 267 276 262 230 221 206 217 234 246 230 196 166 147 142 129 139 146 139 132 124 118 112 104 102
195 204 208 210 213 211 210 207 206 214 221 228 243 244 241 233 238 235 239 251 260 260 274 217 214 219 231 236 238 229 208 190 165 155 155 147 148 164 160 147 125 105 95 102
194 199 203 208 210 217 209 211 215 215 217 226 233 242 246 241 237 232 233 247 257 254 259 220 207 218 231 235 226 225 207 194 188 169 163 157 156 159 162 158 147 131 121 116
190 198 204 209 208 209 216 213 219 217 224 228 232 236 242 245 238 232 231 245 255 248 250 244 206 217 222 217 221 220 216 198 205 195 183 179 171 170 171 171 167 155 144 136
201 195 201 204 205 201 194 191 195 202 205 220 231 230 235 234 230 228 231 240 247 247 245 251 215 218 218 219 223 217 220 216 213 213 203 206 196 196 193 196 195 191 182 171
188 206 212 199 202 206 195 196 202 197 200 212 220 224 227 235 231 230 228 232 240 242 239 241 234 223 225 228 233 232 225 232 227 222 217 221 218 219 220 221 218 216 215 225
Height
5776 5773 5777 5786 5789 5791 5792 5793 5796 5801 5803 5806 5808 5808 5808 5808 5809 5805 5804 5802 5801 5797 5795 5793 5789 5786 5782 5778 5772 5767 5763 5758 5753 5749 5744 5740 5734 5728 5722 5717 5712 5707 5702 5697
5766 5765 5777 5782 5782 5784 5785 5787 5791 5794 5796 5797 5802 5803 5803 5803 5803 5804 5801 5797 5794 5794 5792 5789 5785 5782 5779 5774 5769 5764 5760 5755 5750 5746 5742 5737 5731 5726 5720 5715 5710 5705 5700 5695
5756 5767 5772 5772 5775 5777 5780 5783 5787 5791 5794 5796 5798 5798 5801 5802 5801 5798 5795 5791 5789 5790 5789 5784 5781 5778 5775 5770 5765 5761 5757 5752 5748 5744 5740 5735 5730 5724 5719 5714 5709 5703 5699 5695
5745 5757 5760 5762 5765 5770 5773 5782 5783 5786 5789 5789 5794 5791 5794 5795 5795 5794 5790 5787 5785 5784 5784 5782 5778 5774 5771 5767 5762 5758 5754 5750 5746 5743 5739 5734 5728 5723 5718 5714 5708 5703 5700 5696
5740 5747 5751 5754 5762 5766 5773 5776 5778 5781 5783 5785 5788 5787 5790 5792 5791 5788 5783 5787 5782 5779 5780 5778 5775 5771 5768 5764 5759 5755 5752 5748 5744 5741 5737 5733 5728 5724 5719 5714 5708 5704 5700 5697
5730 5736 5739 5748 5755 5760 5765 5768 5772 5775 5778 5775 5781 5784 5786 5785 5785 5782 5781 5781 5779 5776 5775 5774 5771 5768 5765 5761 5757 5753 5749 5746 5743 5740 5736 5732 5728 5724 5720 5713 5709 5706 5702 5700
5724 5728 5734 5739 5744 5750 5754 5762 5764 5767 5768 5767 5778 5779 5782 5783 5782 5781 5777 5777 5777 5774 5771 5769 5768 5765 5763 5759 5755 5751 5747 5744 5741 5738 5735 5732 5728 5725 5720 5714 5709 5707 5705 5703
5716 5721 5726 5733 5736 5742 5748 5754 5756 5758 5763 5769 5775 5773 5778 5776 5778 5777 5776 5776 5774 5771 5769 5766 5765 5763 5760 5757 5753 5749 5746 5742 5739 5737 5734 5731 5728 5725 5720 5715 5711 5707 5705 5703
5709 5715 5723 5727 5734 5738 5743 5744 5756 5758 5763 5766 5769 5770 5773 5775 5775 5775 5774 5774 5773 5768 5766 5764 5762 5761 5759 5756 5752 5748 5745 5742 5738 5736 5734 5732 5729 5725 5721 5717 5713 5709 5706 5704
5704 5707 5718 5724 5728 5732 5734 5746 5750 5751 5755 5759 5763 5766 5768 5769 5769 5770 5770 5772 5770 5767 5764 5762 5760 5759 5757 5754 5751 5748 5744 5741 5738 5735 5734 5732 5729 5726 5722 5719 5715 5712 5709 5707
5694 5699 5711 5715 5716 5724 5729 5733 5742 5749 5752 5755 5759 5763 5765 5766 5767 5765 5767 5768 5766 5763 5762 5760 5758 5757 5756 5753 5750 5747 5744 5741 5738 5736 5735 5732 5731 5728 5725 5721 5717 5716 5713 5712
5683 5690 5697 5706 5714 5720 5726 5730 5736 5739 5745 5750 5755 5759 5761 5761 5763 5765 5766 5764 5764 5761 5760 5757 5756 5756 5755 5753 5750 5748 5746 5742 5739 5737 5736 5734 5733 5730 5727 5723 5721 5719 5718 5716
5672 5677 5687 5699 5704 5710 5716 5723 5731 5736 5741 5744 5750 5756 5755 5758 5759 5760 5761 5762 5761 5759 5759 5757 5756 5755 5754 5753 5751 5749 5747 5744 5742 5740 5738 5736 5735 5732 5729 5725 5724 5723 5723 5720
5652 5668 5674 5684 5695 5706 5711 5717 5725 5730 5732 5740 5744 5752 5753 5755 5755 5757 5758 5759 5758 5757 5757 5755 5756 5755 5753 5753 5751 5750 5748 5746 5745 5743 5741 5739 5738 5736 5733 5731 5728 5727 5727 5726
5643 5652 5666 5679 5690 5698 5706 5710 5716 5721 5728 5732 5742 5746 5746 5749 5750 5753 5752 5755 5756 5755 5755 5753 5755 5755 5753 5753 5752 5750 5749 5748 5746 5745 5744 5742 5741 5739 5738 5736 5734 5732 5731 5731
5632 5643 5659 5668 5681 5689 5694 5703 5708 5717 5724 5727 5734 5741 5743 5743 5744 5747 5747 5752 5754 5753 5754 5753 5753 5754 5754 5753 5752 5751 5750 5749 5748 5746 5746 5746 5744 5743 5741 5741 5739 5737 5735 5735
5624 5637 5647 5656 5673 5682 5683 5692 5701 5710 5716 5722 5725 5737 5740 5742 5743 5745 5744 5747 5750 5751 5752 5751 5752 5753 5753 5753 5752 5751 5751 5750 5749 5748 5748 5748 5747 5746 5745 5744 5744 5743 5742 5742
5618 5625 5635 5649 5664 5662 5676 5684 5691 5702 5708 5714 5720 5729 5734 5738 5740 5741 5741 5742 5746 5749 5750 5750 5750 5751 5753 5753 5752 5752 5751 5751 5751 5750 5750 5750 5750 5750 5750 5750 5749 5749 5748 5748
5611 5615 5628 5635 5645 5659 5671 5678 5684 5691 5700 5707 5713 5721 5728 5732 5736 5736 5740 5741 5743 5746 5747 5748 5748 5749 5752 5752 5752 5751 5752 5752 5752 5751 5751 5752 5753 5753 5754 5754 5754 5754 5754 5754
5605 5611 5619 5629 5635 5640 5664 5674 5683 5690 5690 5699 5708 5716 5722 5724 5727 5733 5735 5736 5740 5740 5744 5746 5746 5747 5749 5751 5751 5751 5751 5752 5752 5753 5753 5754 5755 5756 5757 5758 5759 5759 5759 5759
5597 5604 5610 5621 5627 5643 5660 5671 5679 5680 5686 5695 5702 5710 5715 5719 5725 5729 5732 5733 5735 5738 5739 5743 5744 5744 5746 5749 5750 5751 5751 5752 5753 5754 5754 5755 5757 5758 5760 5761 5762 5763 5763 5763
5581 5594 5607 5618 5623 5634 5650 5664 5668 5675 5682 5688 5694 5700 5709 5717 5719 5722 5725 5727 5731 5735 5738 5740 5742 5742 5742 5745 5747 5749 5750 5751 5753 5754 5755 5755 5757 5759 5760 5763 5765 5765 5767 5767
5577 5581 5595 5604 5619 5634 5649 5656 5661 5668 5676 5682 5687 5693 5700 5708 5713 5717 5719 5721 5726 5731 5733 5736 5739 5739 5739 5742 5744 5746 5749 5750 5751 5753 5755 5756 5757 5759 5761 5763 5764 5766 5768 5769
5566 5570 5586 5597 5612 5629 5640 5647 5652 5663 5669 5674 5679 5686 5693 5701 5706 5710 5713 5716 5720 5726 5729 5731 5734 5735 5736 5738 5740 5743 5746 5748 5750 5752 5754 5756 5757 5758 5760 5762 5764 5765 5767 5769
5550 5564 5580 5591 5607 5620 5624 5630 5639 5649 5655 5663 5669 5676 5684 5693 5698 5703 5707 5710 5715 5719 5722 5726 5731 5731 5733 5735 5737 5740 5743 5746 5748 5750 5752 5753 5756 5757 5759 5761 5763 5765 5766 5768
5542 5558 5574 5583 5593 5603 5613 5617 5623 5640 5645 5653 5659 5667 5677 5685 5691 5696 5701 5704 5709 5714 5718 5721 5725 5727 5728 5731 5734 5736 5739 5742 5744 5747 5750 5751 5753 5755 5757 5759 5761 5762 5764 5766